Location: Santa Giusta
(39.8800°N, 8.6069°E)
Time: 17:39:44
(UTC+00:00)

PSLV R/B - Pass Details

Date: 02 February 2023
Orbit: 490 x 557 km, 97.8° (Epoch: 31 March)

Event Time Altitude Azimuth Distance (km) Brightness Sun altitude
Rises 17:41:20 0° 148° (SSE) 2,555 7.0 -11.0°
Reaches altitude 10° 17:43:29 10° 139° (SE) 1,682 6.0 -11.4°
Maximum altitude 17:46:49 36° 72° (ENE) 805 4.1 -12.1°
Drops below altitude 10° 17:50:12 10° 5° (N) 1,717 6.2 -12.7°
Sets 17:52:25 0° 357° (N) 2,618 7.2 -13.1°
